Wind_Speed
37 38 38 39 38 38 39 39 38 39 40 41 42 43 43 43 42 42 42 42 42 42 42 42 41 41 41 40 40 40 41 40 40 40 40 41 41 41 41 41 41 41 41
38 39 38 39 39 39 39 39 39 40 40 41 42 43 44 44 44 43 44 43 43 44 43 43 42 42 41 41 42 42 42 43 42 42 42 42 43 43 43 43 43 42 42
39 39 38 38 39 40 40 40 41 41 41 42 43 44 45 45 45 45 45 45 45 45 44 44 43 43 42 42 42 42 43 44 44 44 44 44 44 44 43 44 44 44 44
39 39 39 39 40 41 41 41 42 43 43 43 44 45 45 46 46 46 46 46 46 46 45 45 45 45 44 44 44 44 44 45 45 45 45 46 46 46 45 45 46 46 46
39 39 39 40 40 41 41 42 42 43 44 44 45 45 46 46 46 46 47 47 47 47 46 46 46 46 46 45 45 46 46 46 47 47 47 48 47 47 47 47 47 47 47
39 39 39 40 41 41 42 42 43 43 44 45 46 47 48 47 48 47 47 47 48 48 48 47 47 47 47 47 47 47 48 47 48 48 48 49 49 49 49 49 48 48 49
38 39 40 40 41 41 42 43 44 45 45 46 46 47 48 48 49 49 48 49 49 48 49 49 49 49 49 49 48 48 49 49 49 49 50 50 50 50 50 51 50 50 50
38 39 40 40 41 42 43 43 44 45 46 47 47 47 48 49 49 50 50 51 50 50 50 50 50 50 50 50 50 50 50 50 50 51 51 51 51 51 52 52 52 52 52
37 37 38 40 40 42 43 44 44 45 46 46 47 48 48 49 50 50 51 51 52 52 52 51 51 51 52 52 52 52 52 52 52 52 52 52 52 52 53 53 54 54 53
36 37 38 38 40 41 42 43 44 45 45 46 46 47 48 49 49 50 51 51 52 52 53 53 52 52 52 52 53 53 54 53 53 53 53 53 53 54 54 54 55 54 54
35 36 37 38 39 40 41 42 44 45 45 45 45 46 47 48 49 50 50 51 51 52 52 53 53 53 53 53 52 52 53 53 53 53 54 54 53 54 54 54 55 55 55
35 36 37 38 39 39 40 41 42 43 44 45 46 46 47 48 49 50 51 51 51 52 52 52 52 53 53 52 52 52 52 53 53 53 53 54 54 54 54 54 55 55 54
36 37 38 39 40 40 41 41 42 42 44 45 46 46 47 48 48 49 50 51 52 52 53 53 53 54 54 54 53 53 53 53 54 54 55 55 55 55 55 54 54 54 54
36 37 38 39 40 41 41 42 41 42 43 44 45 46 46 47 48 49 50 51 51 52 53 54 54 55 55 56 55 55 55 55 55 55 56 56 56 55 54 54 54 55 55
36 37 37 39 39 40 40 42 43 43 43 44 45 45 46 46 47 48 49 50 51 52 53 54 54 54 55 56 56 57 57 57 57 57 56 56 55 54 54 54 55 55 55
36 36 37 37 37 38 39 40 41 42 43 43 44 44 44 46 46 47 48 49 50 51 52 53 53 54 54 54 55 56 57 57 57 57 56 55 55 55 55 54 55 56 56
34 35 35 36 37 37 38 39 40 40 41 42 43 44 44 45 45 46 47 48 49 50 51 52 52 52 53 53 54 54 55 55 55 54 54 53 53 53 53 54 55 55 56
35 34 35 35 36 37 37 38 39 40 40 41 43 44 45 45 45 46 47 48 49 50 51 51 51 52 52 53 53 52 53 53 53 52 52 53 53 53 53 53 54 55 55
34 34 35 35 36 36 37 37 38 39 40 41 42 43 45 45 46 47 47 48 49 49 50 51 51 52 52 53 53 53 52 52 52 52 52 53 53 52 52 53 53 54 54
34 34 35 35 36 36 36 37 37 38 39 40 41 41 42 43 44 45 46 47 48 49 49 50 50 50 50 51 51 51 51 51 51 52 52 52 52 52 52 52 52 53 53
34 34 35 35 36 36 36 37 38 38 39 39 40 41 41 42 43 43 44 45 46 47 48 49 49 49 49 49 49 50 50 50 50 50 51 51 51 51 51 51 51 51 51
33 33 33 33 34 34 34 34 35 36 37 38 39 39 40 40 41 41 41 43 44 45 45 46 47 48 48 48 48 49 50 50 50 50 50 50 50 51 50 50 50 50 50
31 31 31 31 32 33 33 34 34 35 35 35 36 37 38 38 38 39 39 40 41 42 43 44 45 46 47 48 48 49 50 50 50 50 50 50 50 50 49 49 49 49 49
30 30 30 31 31 32 33 33 34 34 34 34 34 35 35 36 37 37 38 39 40 41 42 42 43 44 45 46 47 48 49 49 49 49 49 49 49 48 48 48 48 47 47
29 30 30 30 30 31 32 33 33 34 33 33 33 34 34 35 35 36 36 37 38 39 40 40 42 42 43 45 46 47 47 47 48 48 48 48 48 47 47 47 47 47 47
30 30 29 29 29 30 31 31 32 33 33 33 34 34 34 35 35 35 35 36 37 37 38 38 39 40 42 43 44 45 46 46 46 46 46 46 46 46 46 46 46 46 46
Wind_Direction
255 256 256 254 254 253 253 252 252 252 251 251 251 251 252 254 255 254 255 255 254 254 254 253 253 254 254 255 256 257 257 258 259 259 259 258 259 259 260 259 260 260 260
255 255 256 255 254 253 253 251 252 252 252 252 252 253 253 254 253 254 254 254 254 253 254 253 253 254 255 256 257 258 258 258 258 259 259 259 259 260 260 260 261 261 262
255 254 255 255 254 253 253 252 252 252 252 253 252 252 253 253 253 254 254 253 254 254 253 253 254 255 255 256 258 258 258 257 258 259 259 259 259 260 261 261 261 261 261
255 254 254 255 254 253 253 253 253 253 253 253 253 252 252 252 254 254 254 254 255 254 254 254 254 255 256 257 257 257 258 258 258 259 261 261 261 261 261 261 261 261 261
255 255 254 255 255 253 253 253 253 254 253 253 253 253 253 252 253 254 254 254 255 255 254 255 255 256 257 258 257 257 258 259 259 260 261 262 262 263 262 262 261 261 262
256 255 254 255 255 254 254 253 253 253 253 253 254 254 255 254 254 253 253 254 255 255 255 255 256 257 258 258 257 257 258 260 261 261 262 262 262 263 263 262 261 261 262
258 257 256 255 255 255 256 255 254 254 253 253 253 254 254 255 254 254 253 254 254 254 255 256 256 257 258 258 258 258 259 259 260 261 262 262 263 263 263 262 262 261 261
259 258 257 256 256 256 256 256 256 256 255 255 254 254 253 254 254 254 254 254 255 255 255 256 256 257 258 258 258 259 260 261 262 263 263 264 264 264 263 263 262 262 262
259 259 258 257 257 257 257 256 257 257 257 257 255 254 254 254 254 255 255 255 255 256 256 257 257 257 258 259 260 260 261 262 263 263 264 264 264 264 264 263 262 262 261
261 261 260 260 259 258 258 258 258 257 257 258 257 256 256 255 255 254 254 255 255 256 256 257 257 257 258 259 260 260 261 262 263 263 264 264 264 264 264 263 263 262 261
263 262 261 260 260 259 259 259 259 259 258 258 258 258 257 257 256 255 255 256 256 256 257 257 257 258 258 259 259 260 261 262 263 264 264 264 264 265 265 264 264 263 262
266 264 263 262 261 261 261 261 261 260 260 259 259 259 259 257 256 256 255 256 257 258 258 258 259 259 259 259 259 260 262 263 264 265 266 266 266 266 265 265 264 263 263
266 265 264 263 263 263 263 263 262 262 261 261 260 261 260 259 258 256 256 256 257 258 258 259 259 260 260 260 260 261 262 264 265 266 266 266 266 266 266 265 264 263 262
268 267 266 265 265 264 264 264 264 264 263 262 262 262 262 261 259 258 257 257 257 258 259 259 260 261 261 261 261 262 262 264 264 265 266 266 266 265 264 264 263 263 263
270 269 268 267 266 266 265 264 264 264 263 263 262 263 263 264 263 262 260 259 259 260 260 260 261 261 262 262 263 263 263 263 264 265 265 265 265 264 263 263 263 263 263
272 271 270 269 267 267 266 265 265 265 265 264 264 264 265 265 265 264 264 262 261 261 261 261 262 262 263 263 264 264 264 264 264 264 264 264 264 263 262 263 263 263 263
272 272 270 269 268 267 267 267 266 266 267 266 265 265 266 266 266 266 264 263 263 262 262 262 263 263 263 264 264 264 264 264 264 264 264 264 263 263 262 263 263 264 265
271 270 270 270 270 269 269 268 268 268 268 268 268 268 267 267 267 267 266 266 265 263 263 263 263 264 264 264 264 264 264 263 263 263 264 264 263 263 263 263 263 264 264
273 271 270 270 271 270 269 269 269 270 270 269 269 269 269 268 268 268 268 266 265 264 264 264 264 264 265 265 265 264 264 263 263 263 263 263 263 263 264 264 264 264 264
275 273 271 270 271 271 271 272 271 271 271 271 270 270 270 270 269 269 269 267 267 266 265 265 265 265 265 265 265 264 264 264 263 263 263 262 263 264 264 264 264 264 264
277 275 272 271 271 272 272 273 273 273 273 273 273 273 272 271 271 271 269 268 268 268 267 266 265 264 264 264 264 264 264 264 264 263 263 263 264 265 264 264 264 264 264
278 277 275 273 272 273 273 274 275 276 275 275 274 274 274 273 273 272 271 270 269 269 268 267 266 265 264 264 264 264 264 264 264 264 263 263 263 263 263 263 263 263 263
278 278 277 275 275 274 274 275 276 277 277 276 276 275 274 274 274 273 272 272 272 271 270 269 267 266 264 264 264 264 265 265 264 264 263 263 262 263 263 263 262 262 263
278 278 278 277 277 277 276 276 278 279 279 278 278 277 276 275 274 274 274 274 274 273 272 271 269 267 265 265 264 264 265 265 264 264 263 263 263 263 262 261 261 261 262
278 278 277 278 279 280 279 279 280 280 280 280 279 278 277 276 276 276 276 276 276 275 273 272 270 268 267 266 266 265 265 264 264 263 263 262 262 262 262 262 261 262 262
279 279 278 279 280 281 281 280 280 281 281 281 280 280 279 277 277 277 277 277 278 277 275 274 273 272 270 268 267 265 264 263 263 263 262 262 262 261 261 261 261 261 261
Height
5701 5702 5703 5704 5706 5707 5708 5710 5712 5713 5715 5718 5720 5722 5724 5726 5728 5729 5730 5732 5733 5734 5736 5737 5739 5740 5742 5743 5744 5746 5747 5748 5750 5751 5752 5753 5754 5755 5755 5756 5756 5757 5758
5691 5692 5693 5694 5695 5697 5698 5700 5702 5704 5706 5708 5710 5712 5714 5716 5718 5719 5720 5722 5723 5724 5726 5728 5729 5730 5732 5733 5734 5736 5737 5738 5739 5740 5741 5742 5744 5744 5745 5745 5746 5746 5747
5681 5682 5683 5684 5685 5687 5688 5690 5692 5694 5696 5698 5700 5701 5703 5705 5707 5708 5709 5711 5712 5713 5715 5717 5719 5720 5722 5723 5724 5725 5726 5727 5728 5728 5730 5731 5732 5734 5735 5734 5735 5736 5736
5671 5672 5673 5674 5675 5677 5678 5680 5681 5683 5685 5687 5688 5690 5692 5694 5695 5697 5698 5699 5701 5703 5705 5706 5708 5709 5711 5712 5713 5714 5715 5715 5716 5717 5717 5719 5720 5721 5723 5724 5724 5724 5724
5660 5661 5662 5663 5665 5666 5667 5669 5670 5672 5674 5675 5677 5679 5680 5682 5684 5685 5687 5688 5690 5692 5693 5695 5696 5698 5699 5700 5701 5702 5703 5703 5704 5705 5705 5706 5707 5707 5709 5711 5712 5712 5712
5648 5649 5651 5652 5653 5655 5656 5658 5659 5660 5662 5664 5665 5667 5668 5670 5672 5673 5675 5677 5678 5680 5681 5683 5684 5685 5686 5687 5688 5689 5690 5691 5691 5692 5692 5693 5694 5695 5695 5697 5699 5700 5700
5637 5638 5639 5641 5642 5643 5644 5646 5647 5649 5650 5652 5653 5655 5656 5658 5660 5661 5663 5664 5665 5667 5668 5670 5671 5673 5674 5674 5675 5676 5677 5677 5678 5679 5679 5679 5680 5680 5681 5683 5685 5686 5688
5625 5627 5628 5629 5630 5631 5632 5634 5635 5636 5637 5639 5641 5642 5643 5645 5647 5648 5650 5651 5652 5653 5655 5656 5658 5659 5660 5661 5662 5663 5663 5664 5664 5664 5665 5665 5665 5666 5667 5668 5670 5672 5674
5614 5615 5616 5617 5618 5619 5620 5622 5623 5624 5625 5626 5628 5629 5630 5632 5633 5635 5636 5637 5638 5640 5641 5642 5644 5645 5646 5647 5648 5649 5649 5650 5650 5651 5651 5651 5651 5651 5652 5653 5655 5657 5659
5604 5604 5605 5606 5607 5608 5608 5609 5610 5612 5613 5614 5615 5616 5617 5618 5619 5621 5622 5623 5625 5626 5627 5628 5630 5631 5632 5633 5634 5635 5635 5636 5636 5637 5637 5637 5637 5637 5638 5639 5640 5641 5643
5593 5593 5594 5595 5595 5596 5596 5597 5598 5599 5600 5601 5602 5603 5604 5605 5606 5607 5608 5609 5611 5612 5613 5614 5615 5617 5618 5619 5620 5620 5621 5621 5622 5622 5623 5623 5623 5623 5623 5623 5625 5626 5628
5582 5582 5583 5583 5584 5584 5585 5585 5586 5586 5587 5588 5589 5590 5590 5591 5592 5593 5595 5596 5597 5598 5599 5600 5601 5602 5603 5604 5605 5606 5606 5607 5607 5607 5608 5608 5608 5608 5608 5609 5610 5611 5612
5572 5571 5571 5572 5572 5572 5573 5573 5574 5574 5575 5575 5576 5576 5577 5577 5578 5579 5580 5582 5583 5583 5584 5585 5586 5587 5588 5589 5590 5591 5591 5592 5592 5592 5593 5593 5593 5593 5593 5594 5595 5596 5597
5560 5560 5560 5560 5560 5560 5561 5561 5561 5562 5562 5562 5563 5563 5563 5564 5565 5565 5566 5567 5568 5569 5570 5571 5572 5572 5573 5574 5575 5575 5576 5576 5576 5577 5577 5577 5578 5578 5578 5579 5580 5581 5582
5549 5549 5548 5548 5548 5548 5549 5549 5549 5549 5550 5550 5550 5550 5550 5550 5551 5551 5552 5553 5553 5554 5555 5556 5556 5557 5558 5559 5559 5560 5560 5561 5561 5561 5561 5562 5562 5563 5563 5564 5565 5566 5568
5538 5537 5537 5537 5537 5537 5537 5537 5537 5537 5537 5537 5537 5538 5538 5538 5537 5538 5538 5538 5539 5540 5540 5541 5541 5542 5543 5543 5544 5544 5545 5545 5545 5546 5546 5546 5547 5547 5548 5549 5551 5552 5553
5527 5526 5526 5526 5525 5525 5525 5525 5525 5525 5525 5525 5525 5525 5525 5525 5524 5524 5524 5524 5524 5525 5525 5526 5527 5527 5528 5528 5528 5528 5529 5529 5530 5531 5531 5531 5532 5532 5533 5534 5536 5537 5537
5517 5516 5515 5515 5514 5514 5513 5513 5513 5513 5513 5512 5512 5511 5511 5511 5511 5510 5510 5510 5510 5510 5511 5511 5512 5512 5513 5513 5513 5513 5513 5514 5515 5516 5516 5517 5517 5518 5519 5520 5521 5522 5523
5506 5505 5505 5504 5504 5503 5502 5502 5501 5501 5500 5500 5499 5499 5498 5497 5497 5496 5496 5495 5495 5496 5496 5496 5497 5497 5498 5497 5498 5497 5498 5499 5500 5501 5502 5502 5503 5504 5504 5505 5507 5507 5507
5496 5495 5494 5493 5493 5492 5491 5491 5490 5489 5488 5488 5487 5486 5484 5484 5483 5482 5481 5481 5481 5481 5481 5482 5482 5482 5483 5482 5482 5482 5484 5485 5486 5487 5487 5488 5488 5489 5489 5490 5491 5492 5493
5485 5484 5483 5482 5482 5481 5480 5480 5479 5478 5476 5475 5474 5473 5471 5470 5469 5468 5467 5467 5467 5467 5467 5467 5467 5468 5468 5468 5468 5468 5469 5470 5471 5472 5473 5473 5474 5474 5474 5475 5476 5477 5477
5475 5474 5472 5472 5471 5470 5469 5468 5467 5466 5464 5463 5462 5460 5458 5457 5456 5455 5454 5453 5452 5452 5452 5452 5452 5452 5452 5452 5453 5453 5454 5455 5456 5457 5458 5459 5459 5459 5459 5460 5461 5462 5462
5465 5463 5462 5461 5460 5460 5458 5457 5456 5455 5453 5451 5450 5448 5447 5445 5443 5442 5441 5440 5439 5438 5437 5437 5437 5438 5438 5438 5438 5438 5439 5440 5441 5442 5443 5443 5444 5444 5444 5445 5446 5447 5447
5455 5454 5453 5452 5451 5449 5448 5447 5445 5444 5442 5440 5438 5437 5435 5433 5432 5430 5429 5427 5426 5425 5424 5423 5423 5423 5423 5423 5423 5423 5424 5425 5425 5426 5427 5428 5428 5429 5430 5431 5432 5433 5434
5445 5444 5443 5442 5441 5439 5438 5436 5435 5433 5431 5429 5428 5426 5424 5422 5421 5419 5417 5415 5414 5412 5411 5410 5409 5409 5409 5408 5408 5408 5409 5409 5410 5411 5412 5413 5414 5415 5416 5417 5418 5419 5419
5436 5434 5433 5432 5431 5429 5428 5426 5424 5422 5420 5419 5417 5415 5413 5411 5410 5408 5406 5403 5402 5400 5398 5397 5396 5395 5394 5394 5393 5393 5394 5394 5395 5396 5397 5398 5399 5401 5402 5403 5404 5405 5405